sat.trackr.live / text

‹ back to catalog

STARLINK-3052

NORAD 49165 · 2021-082AM

PAYLOAD ACTIVE UNKNOWN

§ Identity

Operator
Country
US
Launch date
2021-09-14
Launch site
AFWTR
Launch vehicle
Mass (kg)
RCS (m²)

Purposes: comms

External: N2YO · Heavens-Above · Gunter

§ Orbital elements

Epoch: 2026-09-20T04:00:03.000096Z

Period
95.48 min
Inclination
70.0001°
Eccentricity
0.0005211
Mean motion
15.08139565 rev/d
Perigee alt
538.3 km
Apogee alt
545.5 km
Semi-major
6,920.0 km
B*
5.0193e-3
RAAN
163.9811°
Arg perigee
281.1477°
Mean anomaly
335.0974°
Rev number
575

§ Raw data

STARLINK-30521 49165U 21082AM  26263.16670139  .00078451  00000+0  50193-2 0  99942 49165  70.0001 163.9811 0005211 281.1477 335.0974 15.08139565  5754

JSON: /api/v1/satellites/49165 · /tle

For live sub-satellite position, see the globe view (requires WebGL).

§ Visibility from observer

Set your observer location to see the next 7 days of passes ≥ 10°. The values pass through the URL so the page stays shareable.

No JS? Fill the form by hand. The geolocation button needs JavaScript.